When you browse on this site, cookies collect data to enhance your experience and personalize the content and advertising you see.
Visit our Privacy Policy to learn more. By continuing to use the site, you agree to this use of cookies and data.
  • în România
  • Lista ţărilor
  • Pe 7 zile
  • Temperatura apei
  • Hartă satelitară
  • Meteo pe hartă
  • Widget-uri
  • user-avatar
    Intrare

    Meteo pe oră la Belfast

    Astăzi, 20 Ianuarie, Duminică

    Timp Temperatura Precipitaţii Vânt Presiune Umiditate
    00:00 +5°C° 0 mm 1 m/s 757 mmHg 95%
    01:00 +4°C° 0 mm 1 m/s 757 mmHg 95%
    02:00 +3°C° 0 mm 0 m/s 757 mmHg 95%
    03:00 +3°C° 0 mm 0 m/s 757 mmHg 95%
    04:00 +3°C° 0 mm 0 m/s 758 mmHg 95%
    05:00 +4°C° 0 mm 1 m/s 758 mmHg 95%
    06:00 +3°C° 0 mm 0 m/s 759 mmHg 94%
    07:00 +4°C° 0.4 mm 1 m/s 760 mmHg 95%
    08:00 +5°C° 0.4 mm 1 m/s 760 mmHg 95%
    09:00 +4°C° 0.4 mm 2 m/s 761 mmHg 96%
    10:00 +4°C° 0.1 mm 4 m/s 762 mmHg 91%
    11:00 +5°C° 0.1 mm 5 m/s 763 mmHg 87%
    12:00 +5°C° 0 mm 6 m/s 763 mmHg 82%
    13:00 +5°C° 0 mm 6 m/s 764 mmHg 81%
    14:00 +4°C° 0 mm 6 m/s 764 mmHg 80%
    15:00 +5°C° 0 mm 5 m/s 765 mmHg 79%
    16:00 +3°C° 0 mm 5 m/s 765 mmHg 79%
    17:00 +3°C° 0 mm 4 m/s 766 mmHg 80%
    18:00 +1°C° 0 mm 4 m/s 766 mmHg 81%
    19:00 +2°C° 0 mm 3 m/s 767 mmHg 82%
    20:00 +2°C° 0 mm 3 m/s 767 mmHg 83%
    21:00 +2°C° 0 mm 2 m/s 767 mmHg 85%
    22:00 +2°C° 0 mm 2 m/s 767 mmHg 86%
    23:00 +2°C° 0 mm 2 m/s 767 mmHg 88%

    Mâine, 21 Ianuarie, Luni

    Timp Temperatura Precipitaţii Vânt Presiune Umiditate
    00:00 +1°C° 0 mm 2 m/s 767 mmHg 90%
    01:00 +1°C° 0 mm 2 m/s 767 mmHg 90%
    02:00 +1°C° 0 mm 2 m/s 767 mmHg 89%
    03:00 +1°C° 0 mm 2 m/s 766 mmHg 89%
    04:00 +1°C° 0 mm 2 m/s 766 mmHg 88%
    05:00 0°C° 0 mm 3 m/s 765 mmHg 87%
    06:00 0°C° 0 mm 3 m/s 764 mmHg 87%
    07:00 +1°C° 0 mm 3 m/s 764 mmHg 86%
    08:00 0°C° 0 mm 4 m/s 763 mmHg 85%
    09:00 0°C° 0 mm 4 m/s 763 mmHg 84%
    10:00 +1°C° 0 mm 5 m/s 761 mmHg 80%
    11:00 +1°C° 0 mm 6 m/s 760 mmHg 76%
    12:00 +1°C° 0 mm 8 m/s 758 mmHg 72%
    13:00 +1°C° 0.3 mm 8 m/s 757 mmHg 76%
    14:00 +2°C° 0.3 mm 9 m/s 755 mmHg 80%
    15:00 +2°C° 0.3 mm 9 m/s 754 mmHg 84%
    16:00 +1°C° 1.1 mm 9 m/s 753 mmHg 84%
    17:00 +1°C° 1.1 mm 8 m/s 752 mmHg 84%
    18:00 +1°C° 1.1 mm 8 m/s 751 mmHg 85%
    19:00 0°C° 0.1 mm 8 m/s 750 mmHg 85%
    20:00 0°C° 0.1 mm 7 m/s 750 mmHg 86%
    21:00 -1°C° 0.1 mm 7 m/s 750 mmHg 86%
    22:00 -1°C° 0.1 mm 7 m/s 750 mmHg 84%
    23:00 -1°C° 0.1 mm 7 m/s 750 mmHg 82%

    Poimâine, 22 Ianuarie, Marţi

    Timp Temperatura Precipitaţii Vânt Presiune Umiditate
    00:00 -1°C° 0.1 mm 6 m/s 750 mmHg 80%
    01:00 -1°C° 0 mm 6 m/s 749 mmHg 81%
    02:00 -1°C° 0 mm 6 m/s 749 mmHg 82%
    03:00 -2°C° 0 mm 6 m/s 749 mmHg 83%
    04:00 -2°C° 0 mm 6 m/s 749 mmHg 81%
    05:00 -2°C° 0 mm 6 m/s 748 mmHg 80%
    06:00 -2°C° 0 mm 6 m/s 748 mmHg 78%
    07:00 -2°C° 0 mm 6 m/s 748 mmHg 78%
    08:00 -3°C° 0 mm 6 m/s 748 mmHg 77%
    09:00 -3°C° 0 mm 6 m/s 749 mmHg 77%
    10:00 -2°C° 0 mm 6 m/s 749 mmHg 73%
    11:00 -1°C° 0 mm 7 m/s 749 mmHg 70%
    12:00 0°C° 0 mm 7 m/s 749 mmHg 66%
    13:00 +1°C° 0 mm 6 m/s 749 mmHg 66%
    14:00 +1°C° 0 mm 6 m/s 749 mmHg 66%
    15:00 +1°C° 0 mm 6 m/s 749 mmHg 66%
    16:00 0°C° 0 mm 5 m/s 749 mmHg 69%
    17:00 0°C° 0 mm 5 m/s 749 mmHg 72%
    18:00 -1°C° 0 mm 5 m/s 749 mmHg 76%
    19:00 -2°C° 0 mm 4 m/s 749 mmHg 78%
    20:00 -2°C° 0 mm 4 m/s 750 mmHg 80%
    21:00 -2°C° 0 mm 4 m/s 750 mmHg 83%
    22:00 -2°C° 0 mm 4 m/s 750 mmHg 83%
    23:00 -2°C° 0 mm 4 m/s 750 mmHg 83%

    23 Ianuarie, Miercuri

    Timp Temperatura Precipitaţii Vânt Presiune Umiditate
    00:00 -2°C° 0 mm 4 m/s 751 mmHg 83%
    01:00 -2°C° 0 mm 4 m/s 751 mmHg 83%
    02:00 -2°C° 0 mm 4 m/s 751 mmHg 83%
    03:00 -1°C° 0 mm 3 m/s 751 mmHg 84%
    04:00 -1°C° 0 mm 3 m/s 751 mmHg 84%
    05:00 0°C° 0 mm 3 m/s 751 mmHg 84%
    06:00 0°C° 0 mm 3 m/s 752 mmHg 85%
    07:00 0°C° 0 mm 3 m/s 752 mmHg 86%
    08:00 0°C° 0 mm 3 m/s 753 mmHg 86%
    09:00 0°C° 0 mm 3 m/s 753 mmHg 87%
    10:00 +1°C° 0 mm 3 m/s 754 mmHg 83%
    11:00 +2°C° 0 mm 3 m/s 754 mmHg 79%
    12:00 +3°C° 0 mm 3 m/s 754 mmHg 75%
    13:00 +4°C° 0 mm 3 m/s 754 mmHg 76%
    14:00 +4°C° 0 mm 3 m/s 754 mmHg 77%
    15:00 +4°C° 0 mm 3 m/s 754 mmHg 78%
    16:00 +3°C° 0 mm 3 m/s 755 mmHg 82%
    17:00 +2°C° 0 mm 3 m/s 755 mmHg 87%
    18:00 +2°C° 0 mm 3 m/s 755 mmHg 91%
    19:00 +2°C° 0.1 mm 3 m/s 755 mmHg 92%
    20:00 +3°C° 0.1 mm 3 m/s 755 mmHg 92%
    21:00 +3°C° 0.1 mm 3 m/s 755 mmHg 93%
    22:00 +3°C° 0.2 mm 4 m/s 755 mmHg 94%
    23:00 +4°C° 0.2 mm 4 m/s 755 mmHg 95%

    24 Ianuarie, Joi

    Timp Temperatura Precipitaţii Vânt Presiune Umiditate
    00:00 +4°C° 0.2 mm 4 m/s 755 mmHg 96%
    01:00 +5°C° 0.1 mm 5 m/s 755 mmHg 96%
    02:00 +5°C° 0.1 mm 5 m/s 755 mmHg 96%
    03:00 +6°C° 0.1 mm 5 m/s 754 mmHg 95%
    04:00 +6°C° 0 mm 5 m/s 755 mmHg 95%
    05:00 +6°C° 0 mm 5 m/s 755 mmHg 95%
    06:00 +6°C° 0 mm 4 m/s 755 mmHg 95%
    07:00 +6°C° 0.8 mm 4 m/s 755 mmHg 96%
    08:00 +7°C° 0.8 mm 4 m/s 755 mmHg 96%
    09:00 +7°C° 0.8 mm 4 m/s 755 mmHg 96%
    10:00 +8°C° 0.1 mm 5 m/s 756 mmHg 95%
    11:00 +8°C° 0.1 mm 6 m/s 756 mmHg 93%
    12:00 +9°C° 0.1 mm 7 m/s 756 mmHg 92%
    13:00 +9°C° 0 mm 6 m/s 756 mmHg 91%
    14:00 +9°C° 0 mm 6 m/s 757 mmHg 91%
    15:00 +8°C° 0 mm 6 m/s 757 mmHg 90%
    16:00 +8°C° 0 mm 6 m/s 757 mmHg 91%
    17:00 +8°C° 0 mm 6 m/s 758 mmHg 92%
    18:00 +8°C° 0 mm 5 m/s 758 mmHg 93%
    19:00 +8°C° 0 mm 5 m/s 758 mmHg 93%
    20:00 +8°C° 0 mm 5 m/s 759 mmHg 92%
    21:00 +8°C° 0 mm 5 m/s 759 mmHg 92%
    22:00 +8°C° 0 mm 5 m/s 759 mmHg 93%
    23:00 +8°C° 0 mm 6 m/s 759 mmHg 93%

    25 Ianuarie, Vineri

    Timp Temperatura Precipitaţii Vânt Presiune Umiditate
    00:00 +7°C° 0 mm 6 m/s 759 mmHg 94%
    01:00 +7°C° 0 mm 6 m/s 759 mmHg 93%
    02:00 +7°C° 0 mm 6 m/s 759 mmHg 93%
    03:00 +7°C° 0 mm 6 m/s 759 mmHg 93%
    04:00 +7°C° 0 mm 5 m/s 759 mmHg 93%
    05:00 +7°C° 0 mm 5 m/s 759 mmHg 94%
    06:00 +6°C° 0 mm 5 m/s 759 mmHg 95%
    07:00 +7°C° 0 mm 6 m/s 758 mmHg 94%
    08:00 +7°C° 0 mm 6 m/s 758 mmHg 94%
    09:00 +7°C° 0 mm 6 m/s 758 mmHg 93%
    10:00 +6°C° 0 mm 7 m/s 758 mmHg 92%
    11:00 +8°C° 0 mm 7 m/s 758 mmHg 91%
    12:00 +9°C° 0 mm 7 m/s 758 mmHg 90%
    13:00 +9°C° 0 mm 7 m/s 757 mmHg 90%
    14:00 +9°C° 0 mm 7 m/s 757 mmHg 90%
    15:00 +10°C° 0 mm 6 m/s 757 mmHg 90%
    16:00 +9°C° 0.2 mm 5 m/s 756 mmHg 91%
    17:00 +8°C° 0.2 mm 4 m/s 756 mmHg 93%
    18:00 +9°C° 0.2 mm 3 m/s 756 mmHg 94%
    19:00 +8°C° 0.3 mm 2 m/s 755 mmHg 95%
    20:00 +9°C° 0.3 mm 1 m/s 755 mmHg 96%
    21:00 +8°C° 0.3 mm 1 m/s 754 mmHg 96%
    22:00 +7°C° 2.1 mm 2 m/s 753 mmHg 95%
    23:00 +5°C° 2.1 mm 3 m/s 753 mmHg 94%
    Arată mai mult